{"data":{"norad_id":62609,"intl_designator":"2025-009A","name":"BUZZER-1","alt_names":[],"object_type":"PAYLOAD","status":"ACTIVE","operator":null,"country":"FR","launch_date":"2025-01-14","launch_site_code":"AFWTR","launch_vehicle":null,"mission":null,"orbit_class":"UNKNOWN","rcs_meters":null,"size_class":null,"mass_kg":null,"dimensions":null,"purposes":[],"wikipedia_slug":null,"has_3d_model":false,"image_url":null,"decayed_at":null,"tle_current":{"epoch":"2026-05-25T03:58:16.308192Z","epoch_age_seconds":71072,"freshness":"FRESH","line1":"1 62609U 25009A   26145.16546653  .00006516  00000+0  29348-3 0  9999","line2":"2 62609  97.3926 223.8208 0009059  63.4363 296.7801 15.21365566 75199","mean_motion":15.21365566,"eccentricity":0.0009059,"inclination_deg":97.3926,"raan_deg":223.8208,"arg_perigee_deg":63.4363,"mean_anomaly_deg":296.7801,"bstar":0.00029348,"rev_number":7519,"period_min":94.651807046355,"perigee_km":495.48819738052,"apogee_km":507.95312348969,"semimajor_km":6879.8576604351,"source":"CELESTRAK","updated_at":"2026-05-25T13:38:03.125988Z"}}}